User: anonymous
Location: Unspecified
(0.0000°N, 0.0000°E)
Time: 06:23:34
(UTC+02:00)
Language:

Orbus 21S - Orbit

View from above orbital plane
View from above orbital plane
View from above satellite
View from above satellite

Ground track
Ground track

The orbit data is extracted from the following two-line orbital elements,

1 20669U 90056C   14291.05272730  .00000099  00000-0  68937-3 0  3961
2 20669 024.1173 132.1152 7121056 045.8448 060.4061 02.44619389203393
Epoch (UTC): 18 October 2014 01:15:55
Eccentricity: 0.7121056
inclination: 24.1173°
perigee height: 320 km
apogee height: 33457 km
right ascension of ascending node: 132.1152°
argument of perigee: 45.8448°
revolutions per day: 2.44619389
mean anomaly at epoch: 60.4061°
orbit number at epoch: 20339

The dashed part of the orbit path shows where the satellite is in the earth's shadow,  

DLR